Date String (YYYY-MM-DD hh:mm:ss) UTC,Instrument flags,absolute air pressure of the measurement (hPa),sample flow rate (lpm),inlet stack bypass flow (lpm),air temperature of the measurement (°C),ambient temperature measured by the external sensor (°C),aerosol sample conditioner tube jacket temperature (°C),OPC LED temperature (°C),internal box temperature (°C),relative humidity of the measurement (%),span deviation,mass concentration of particles derived from Lorenz-Mie calculation of OPC scattering (μg/m³),mass concentration of particles derived from Lorenz-Mie calculation of OPC scattering (μg/m³),mass concentration of particles derived from Lorenz-Mie calculation of OPC scattering (μg/m³)
DateTimeUTC,F1_M11,P_M11,Q1_M11,Q2_M11,T1_M11,T2_M11,T3_M11,T4_M11,T5_M11,U1_M11,ZSPAN_M11,X0_M11,X2_M11,X1_M11
2024-05-06 03:00:00,SystemResetWarning,0813.3,5.00,000.00,024.2,022.5,000.0,032.7,025.6,015.4,0000.0,0016.29,0003.89,0002.38
2024-05-06 03:01:00,SystemResetWarning,0813.3,5.01,000.00,024.3,022.8,000.0,032.7,025.9,015.2,0000.0,0017.68,0003.93,0002.37
2024-05-06 03:02:00,SystemResetWarning,0813.3,5.01,000.00,024.4,023.1,000.0,032.6,026.0,015.0,0000.0,0017.53,0003.94,0002.37
2024-05-06 03:03:00,SystemResetWarning,0813.3,5.00,000.00,024.4,023.4,000.0,032.6,026.1,014.8,0000.0,0016.89,0003.91,0002.38
2024-05-06 03:04:00,SystemResetWarning,0813.3,5.00,000.00,024.5,023.6,000.0,032.6,026.2,014.8,0000.0,0017.43,0003.88,0002.36
2024-05-06 03:05:00,SystemResetWarning,0813.3,5.00,000.00,024.5,023.7,000.0,032.7,026.3,014.9,0000.0,0017.16,0003.92,0002.36
2024-05-06 03:06:00,SystemResetWarning,0813.4,5.00,000.00,024.6,023.9,000.0,032.7,026.4,014.8,0000.0,0017.29,0003.98,0002.35
2024-05-06 03:07:00,SystemResetWarning,0813.4,4.99,000.00,024.6,024.1,000.0,032.7,026.5,014.8,0000.0,0017.46,0003.99,0002.36
2024-05-06 03:08:00,SystemResetWarning,0813.3,4.99,000.00,024.7,024.2,000.0,032.7,026.6,014.5,0000.0,0016.74,0004.00,0002.35
2024-05-06 03:09:00,SystemResetWarning,0813.4,5.01,000.00,024.8,024.3,000.0,032.8,026.6,014.7,0000.0,0016.79,0003.99,0002.32
2024-05-06 03:10:00,SystemResetWarning,0813.5,5.01,000.00,024.8,024.4,000.0,032.8,026.7,014.8,0000.0,0016.61,0004.05,0002.33
2024-05-06 03:11:00,SystemResetWarning,0813.5,5.00,000.00,024.9,024.5,000.0,032.9,026.8,014.7,0000.0,0017.48,0004.10,0002.33
2024-05-06 03:12:00,SystemResetWarning,0813.5,4.99,000.00,024.9,024.2,000.0,032.9,026.6,014.7,0000.0,0015.90,0004.13,0002.32
2024-05-06 03:13:00,SystemResetWarning,0813.4,5.00,000.00,024.6,022.3,000.0,033.0,025.6,014.4,0000.0,0017.15,0004.21,0002.30
2024-05-06 03:14:00,SystemResetWarning,0813.4,5.02,000.00,024.4,021.8,000.0,033.0,025.3,014.3,0000.0,0018.85,0004.27,0002.29
2024-05-06 03:15:00,SystemResetWarning,0813.4,4.98,000.00,024.3,022.1,000.0,032.9,025.4,014.6,0000.0,0019.90,0004.43,0002.29
2024-05-06 03:16:00,SystemResetWarning,0813.5,5.01,000.00,024.3,022.5,000.0,032.8,025.6,014.6,0000.0,0020.64,0004.52,0002.29
2024-05-06 03:17:00,SystemResetWarning,0813.5,5.01,000.00,024.3,022.8,000.0,032.7,025.8,014.7,0000.0,0020.75,0004.56,0002.31
2024-05-06 03:18:00,SystemResetWarning,0813.5,4.99,000.00,024.4,023.1,000.0,032.7,026.0,014.7,0000.0,0020.38,0004.57,0002.30
2024-05-06 03:19:00,SystemResetWarning,0813.5,4.99,000.00,024.4,023.3,000.0,032.7,026.1,015.0,0000.0,0021.33,0004.55,0002.31
2024-05-06 03:20:00,SystemResetWarning,0813.5,5.00,000.00,024.5,023.5,000.0,032.7,026.2,014.9,0000.0,0021.34,0004.56,0002.34
2024-05-06 03:21:00,SystemResetWarning,0813.5,4.99,000.00,024.5,023.7,000.0,032.7,026.3,015.0,0000.0,0021.28,0004.55,0002.34
2024-05-06 03:22:00,SystemResetWarning,0813.5,4.99,000.00,024.6,023.9,000.0,032.7,026.4,015.1,0000.0,0020.85,0004.53,0002.33
2024-05-06 03:23:00,SystemResetWarning,0813.5,5.01,000.00,024.6,024.0,000.0,032.7,026.5,015.0,0000.0,0022.23,0004.56,0002.31
2024-05-06 03:24:00,SystemResetWarning,0813.6,5.01,000.00,024.7,024.1,000.0,032.8,026.6,014.8,0000.0,0022.22,0004.49,0002.32
2024-05-06 03:25:00,SystemResetWarning,0813.5,5.00,000.00,024.8,024.2,000.0,032.8,026.6,014.9,0000.0,0021.07,0004.46,0002.32
2024-05-06 03:26:00,SystemResetWarning,0813.5,4.99,000.00,024.8,024.3,000.0,032.8,026.7,015.0,0000.0,0020.33,0004.33,0002.32
2024-05-06 03:27:00,SystemResetWarning,0813.6,4.99,000.00,024.9,024.4,000.0,032.9,026.7,014.9,0000.0,0018.97,0004.23,0002.31
2024-05-06 03:28:00,SystemResetWarning,0813.5,5.01,000.00,024.9,024.5,000.0,032.9,026.8,014.7,0000.0,0019.08,0004.22,0002.32
2024-05-06 03:29:00,SystemResetWarning,0813.6,5.01,000.00,025.0,024.6,000.0,032.9,026.8,014.7,0000.0,0019.26,0004.24,0002.33
2024-05-06 03:30:00,SystemResetWarning,0813.5,4.99,000.00,024.9,023.6,000.0,033.0,026.3,014.8,0000.0,0018.30,0004.27,0002.32
2024-05-06 03:31:00,SystemResetWarning,0813.5,4.99,000.00,024.6,022.0,000.0,033.1,025.5,015.1,0000.0,0017.30,0004.27,0002.33
2024-05-06 03:32:00,SystemResetWarning,0813.5,5.01,000.00,024.4,022.0,000.0,033.1,025.4,015.2,0000.0,0016.54,0004.21,0002.32
2024-05-06 03:33:00,SystemResetWarning,0813.5,5.00,000.00,024.3,022.3,000.0,032.9,025.5,015.3,0000.0,0015.40,0004.19,0002.31
2024-05-06 03:34:00,SystemResetWarning,0813.5,5.00,000.00,024.4,022.7,000.0,032.8,025.8,015.2,0000.0,0013.83,0004.10,0002.33
2024-05-06 03:35:00,SystemResetWarning,0813.5,4.99,000.00,024.4,023.0,000.0,032.8,026.0,015.4,0000.0,0012.36,0004.08,0002.32
2024-05-06 03:36:00,SystemResetWarning,0813.5,5.00,000.00,024.4,023.3,000.0,032.8,026.1,015.4,0000.0,0011.95,0004.10,0002.31
2024-05-06 03:37:00,SystemResetWarning,0813.5,5.00,000.00,024.5,023.5,000.0,032.8,026.2,015.5,0000.0,0011.39,0004.10,0002.32
2024-05-06 03:38:00,SystemResetWarning,0813.5,5.00,000.00,024.5,023.7,000.0,032.8,026.3,015.4,0000.0,0011.64,0004.16,0002.35
2024-05-06 03:39:00,SystemResetWarning,0813.5,5.00,000.00,024.6,023.8,000.0,032.8,026.4,015.4,0000.0,0011.70,0004.12,0002.35
2024-05-06 03:40:00,SystemResetWarning,0813.6,5.01,000.00,024.7,024.0,000.0,032.8,026.5,015.4,0000.0,0011.45,0004.08,0002.33
2024-05-06 03:41:00,SystemResetWarning,0813.5,4.99,000.00,024.7,024.1,000.0,032.8,026.5,015.3,0000.0,0011.51,0004.06,0002.32
2024-05-06 03:42:00,SystemResetWarning,0813.5,4.99,000.00,024.8,024.2,000.0,032.8,026.6,015.1,0000.0,0011.49,0004.05,0002.28
2024-05-06 03:43:00,SystemResetWarning,0813.6,5.00,000.00,024.8,024.3,000.0,032.9,026.7,015.2,0000.0,0011.42,0004.02,0002.27
2024-05-06 03:44:00,SystemResetWarning,0813.5,4.99,000.00,024.9,024.4,000.0,032.9,026.7,015.3,0000.0,0011.29,0004.01,0002.29
2024-05-06 03:45:00,SystemResetWarning,0813.5,5.01,000.00,024.9,024.5,000.0,032.9,026.8,015.4,0000.0,0011.44,0004.10,0002.30
2024-05-06 03:46:00,SystemResetWarning,0813.6,5.00,000.00,025.0,024.5,000.0,033.0,026.8,015.1,0000.0,0011.16,0004.10,0002.33
2024-05-06 03:47:00,SystemResetWarning,0813.6,4.99,000.00,024.9,023.7,000.0,033.0,026.4,015.0,0000.0,0012.26,0004.04,0002.32
2024-05-06 03:48:00,SystemResetWarning,0813.5,5.01,000.00,024.6,021.9,000.0,033.1,025.5,015.4,0000.0,0012.08,0004.02,0002.32
2024-05-06 03:49:00,SystemResetWarning,0813.5,5.01,000.00,024.4,021.9,000.0,033.1,025.4,015.6,0000.0,0011.81,0004.02,0002.32
2024-05-06 03:50:00,SystemResetWarning,0813.5,4.99,000.00,024.3,022.2,000.0,033.0,025.5,015.4,0000.0,0010.93,0004.02,0002.32
2024-05-06 03:51:00,SystemResetWarning,0813.5,5.01,000.00,024.3,022.6,000.0,032.8,025.7,015.5,0000.0,0010.56,0004.00,0002.34
2024-05-06 03:52:00,SystemResetWarning,0813.6,5.01,000.00,024.4,022.9,000.0,032.8,025.9,015.4,0000.0,0010.41,0004.01,0002.36
2024-05-06 03:53:00,SystemResetWarning,0813.5,5.00,000.00,024.4,023.2,000.0,032.8,026.1,015.4,0000.0,0010.55,0004.01,0002.39
2024-05-06 03:54:00,SystemResetWarning,0813.6,5.00,000.00,024.5,023.4,000.0,032.8,026.2,015.2,0000.0,0010.89,0004.04,0002.40
2024-05-06 03:55:00,SystemResetWarning,0813.5,5.00,000.00,024.5,023.6,000.0,032.8,026.3,015.0,0000.0,0011.27,0004.04,0002.42
2024-05-06 03:56:00,SystemResetWarning,0813.5,5.01,000.00,024.6,023.8,000.0,032.8,026.3,015.1,0000.0,0010.96,0003.95,0002.43
2024-05-06 03:57:00,SystemResetWarning,0813.5,5.00,000.00,024.6,023.9,000.0,032.8,026.4,015.3,0000.0,0010.90,0003.91,0002.44
2024-05-06 03:58:00,SystemResetWarning,0813.6,5.00,000.00,024.7,024.1,000.0,032.8,026.5,015.4,0000.0,0009.72,0003.88,0002.44
2024-05-06 03:59:00,SystemResetWarning,0813.6,5.00,000.00,024.7,024.2,000.0,032.8,026.6,015.3,0000.0,0010.17,0003.86,0002.43
